| time (UTC) | temp C | wind direction | speed KPH | gust KPH | rain 1hr cm | rain 24hr cm | rain mn cm | humidity % | barometer mb |
| 20260508162101 | 16 | 46 | 1.6 | 6.4 | 0.00 | 0.00 | 0.00 | 34 | 1025.7 |
| 20260508161559 | 16 | 46 | 1.6 | 4.8 | 0.00 | 0.00 | 0.00 | 38 | 1025.8 |
| 20260508161104 | 16 | 50 | 1.6 | 6.4 | 0.00 | 0.00 | 0.00 | 35 | 1025.7 |
| 20260508160600 | 15 | 63 | 0.0 | 6.4 | 0.00 | 0.00 | 0.00 | 39 | 1025.8 |
| 20260508160115 | 14 | 74 | 3.2 | 6.4 | 0.00 | 0.00 | 0.00 | 40 | 1025.8 |
| 20260508155558 | 14 | 55 | 1.6 | 6.4 | 0.00 | 0.00 | 0.00 | 43 | 1025.9 |
| 20260508155058 | 13 | 51 | 1.6 | 6.4 | 0.00 | 0.00 | 0.00 | 44 | 1025.8 |
| 20260508154603 | 13 | 78 | 3.2 | 6.4 | 0.00 | 0.00 | 0.00 | 43 | 1025.8 |
| 20260508154058 | 13 | 82 | 3.2 | 4.8 | 0.00 | 0.00 | 0.00 | 49 | 1025.8 |
| 20260508153601 | 12 | 82 | 3.2 | 3.2 | 0.00 | 0.00 | 0.00 | 59 | 1025.8 |
| 20260508153058 | 12 | 72 | 0.0 | 1.6 | 0.00 | 0.00 | 0.00 | 65 | 1025.8 |
| 20260508152559 | 11 | 0 | 0.0 | 4.8 | 0.00 | 0.00 | 0.00 | 67 | 1025.7 |
| 20260508152059 | 11 | 82 | 1.6 | 4.8 | 0.00 | 0.00 | 0.00 | 69 | 1025.7 |
| 20260508151602 | 10 | 43 | 0.0 | 4.8 | 0.00 | 0.00 | 0.00 | 71 | 1025.7 |
| 20260508151059 | 9 | 64 | 0.0 | 4.8 | 0.00 | 0.00 | 0.00 | 70 | 1025.7 |
| 20260508150557 | 9 | 0 | 0.0 | 1.6 | 0.00 | 0.00 | 0.00 | 73 | 1025.7 |
| 20260508150057 | 8 | 0 | 0.0 | 1.6 | 0.00 | 0.00 | 0.00 | 74 | 1025.8 |
| 20260508145601 | 8 | 0 | 0.0 | 0.0 | 0.00 | 0.00 | 0.00 | 76 | 1026.0 |
| 20260508145102 | 7 | 0 | 0.0 | 0.0 | 0.00 | 0.00 | 0.00 | 78 | 1026.0 |
| 20260508144556 | 7 | 0 | 0.0 | 0.0 | 0.00 | 0.00 | 0.00 | 78 | 1025.9 |
| 20260508144057 | 7 | 0 | 0.0 | 0.0 | 0.00 | 0.00 | 0.00 | 79 | 1025.8 |
| 20260508143558 | 7 | 0 | 0.0 | 0.0 | 0.00 | 0.00 | 0.00 | 80 | 1025.7 |
| 20260508143101 | 6 | 0 | 0.0 | 0.0 | 0.00 | 0.00 | 0.00 | 80 | 1025.8 |
| 20260508142558 | 6 | 0 | 0.0 | 0.0 | 0.00 | 0.00 | 0.00 | 81 | 1025.7 |
| 20260508142100 | 6 | 0 | 0.0 | 0.0 | 0.00 | 0.00 | 0.00 | 80 | 1025.7 |
| 20260508141559 | 6 | 0 | 0.0 | 0.0 | 0.00 | 0.00 | 0.00 | 81 | 1025.7 |
| 20260508141058 | 5 | 0 | 0.0 | 0.0 | 0.00 | 0.00 | 0.00 | 81 | 1025.6 |
| 20260508140558 | 5 | 0 | 0.0 | 0.0 | 0.00 | 0.00 | 0.00 | 84 | 1025.6 |
| 20260508140110 | 4 | 0 | 0.0 | 0.0 | 0.00 | 0.00 | 0.00 | 84 | 1025.5 |
| 20260508135558 | 3 | 0 | 0.0 | 0.0 | 0.00 | 0.00 | 0.00 | 90 | 1025.5 |
| 20260508135058 | 2 | 0 | 0.0 | 0.0 | 0.00 | 0.00 | 0.00 | 92 | 1025.5 |
| 20260508134557 | 1 | 0 | 0.0 | 0.0 | 0.00 | 0.00 | 0.00 | 92 | 1025.4 |
| 20260508134057 | 1 | 0 | 0.0 | 0.0 | 0.00 | 0.00 | 0.00 | 92 | 1025.3 |
| 20260508133601 | 1 | 0 | 0.0 | 0.0 | 0.00 | 0.00 | 0.00 | 91 | 1025.5 |
| 20260508133100 | 1 | 0 | 0.0 | 0.0 | 0.00 | 0.00 | 0.00 | 90 | 1025.3 |
| 20260508132557 | 1 | 0 | 0.0 | 0.0 | 0.00 | 0.00 | 0.00 | 90 | 1025.3 |
| 20260508132058 | 1 | 0 | 0.0 | 1.6 | 0.00 | 0.00 | 0.00 | 91 | 1025.3 |
| 20260508131600 | 1 | 0 | 0.0 | 1.6 | 0.00 | 0.00 | 0.00 | 90 | 1025.2 |
| 20260508131058 | 1 | 168 | 0.0 | 0.0 | 0.00 | 0.00 | 0.00 | 90 | 1025.3 |
| 20260508130602 | 1 | 0 | 0.0 | 0.0 | 0.00 | 0.00 | 0.00 | 89 | 1025.2 |
| 20260508130106 | 1 | 0 | 0.0 | 0.0 | 0.00 | 0.00 | 0.00 | 90 | 1025.1 |
| 20260508125558 | 1 | 0 | 0.0 | 0.0 | 0.00 | 0.00 | 0.00 | 89 | 1025.3 |
| 20260508125058 | 1 | 0 | 0.0 | 1.6 | 0.00 | 0.00 | 0.00 | 90 | 1025.3 |
| 20260508124603 | 1 | 0 | 0.0 | 1.6 | 0.00 | 0.00 | 0.00 | 90 | 1025.3 |
| 20260508124058 | 1 | 174 | 0.0 | 1.6 | 0.00 | 0.00 | 0.00 | 87 | 1025.3 |
| 20260508123558 | 1 | 209 | 0.0 | 3.2 | 0.00 | 0.00 | 0.00 | 88 | 1025.3 |
| 20260508123100 | 1 | 0 | 0.0 | 3.2 | 0.00 | 0.00 | 0.00 | 88 | 1025.3 |
| 20260508122557 | 1 | 183 | 0.0 | 1.6 | 0.00 | 0.00 | 0.00 | 87 | 1025.3 |
| 20260508122100 | 2 | 0 | 0.0 | 0.0 | 0.00 | 0.00 | 0.00 | 90 | 1025.3 |
| 20260508121629 | 2 | 0 | 0.0 | 0.0 | 0.00 | 0.00 | 0.00 | 90 | 1025.2 |
| 20260508121058 | 2 | 0 | 0.0 | 0.0 | 0.00 | 0.00 | 0.00 | 90 | 1025.2 |
| 20260508120556 | 2 | 0 | 0.0 | 0.0 | 0.00 | 0.00 | 0.00 | 88 | 1025.0 |
| 20260508120057 | 2 | 0 | 0.0 | 0.0 | 0.00 | 0.00 | 0.00 | 86 | 1025.1 |
| 20260508115557 | 2 | 0 | 0.0 | 3.2 | 0.00 | 0.00 | 0.00 | 86 | 1025.1 |
| 20260508115059 | 2 | 0 | 0.0 | 3.2 | 0.00 | 0.00 | 0.00 | 86 | 1025.1 |
| 20260508114555 | 2 | 0 | 1.6 | 3.2 | 0.00 | 0.00 | 0.00 | 86 | 1025.1 |
| 20260508114057 | 2 | 0 | 0.0 | 1.6 | 0.00 | 0.00 | 0.00 | 85 | 1025.1 |
| 20260508113559 | 2 | 0 | 0.0 | 1.6 | 0.00 | 0.00 | 0.00 | 88 | 1025.2 |
| 20260508113104 | 2 | 168 | 0.0 | 1.6 | 0.00 | 0.00 | 0.00 | 84 | 1025.1 |
| 20260508112557 | 2 | 0 | 0.0 | 1.6 | 0.00 | 0.00 | 0.00 | 85 | 1025.2 |
| 20260508112058 | 2 | 0 | 0.0 | 1.6 | 0.00 | 0.00 | 0.00 | 86 | 1025.0 |
| 20260508111607 | 3 | 0 | 0.0 | 1.6 | 0.00 | 0.00 | 0.00 | 88 | 1025.1 |
| 20260508111059 | 2 | 172 | 0.0 | 1.6 | 0.00 | 0.00 | 0.00 | 84 | 1025.1 |
| 20260508110559 | 2 | 181 | 0.0 | 1.6 | 0.00 | 0.00 | 0.00 | 87 | 1025.3 |
| 20260508110059 | 2 | 0 | 0.0 | 0.0 | 0.00 | 0.00 | 0.00 | 83 | 1025.2 |
| 20260508105557 | 3 | 0 | 0.0 | 0.0 | 0.00 | 0.00 | 0.00 | 85 | 1025.3 |
| 20260508105057 | 3 | 0 | 0.0 | 0.0 | 0.00 | 0.00 | 0.00 | 86 | 1025.4 |
| 20260508104604 | 3 | 0 | 0.0 | 0.0 | 0.00 | 0.00 | 0.00 | 84 | 1025.3 |
| 20260508104057 | 3 | 0 | 0.0 | 0.0 | 0.00 | 0.00 | 0.00 | 81 | 1025.4 |
| 20260508103556 | 3 | 0 | 0.0 | 0.0 | 0.00 | 0.00 | 0.00 | 83 | 1025.4 |
| 20260508103057 | 3 | 0 | 0.0 | 1.6 | 0.00 | 0.00 | 0.00 | 85 | 1025.5 |
| 20260508102557 | 3 | 0 | 0.0 | 3.2 | 0.00 | 0.00 | 0.00 | 83 | 1025.5 |
| 20260508102101 | 3 | 0 | 0.0 | 3.2 | 0.00 | 0.00 | 0.00 | 81 | 1025.3 |
| 20260508101557 | 3 | 0 | 0.0 | 0.0 | 0.00 | 0.00 | 0.00 | 81 | 1025.5 |
| 20260508101058 | 3 | 0 | 0.0 | 0.0 | 0.00 | 0.00 | 0.00 | 82 | 1025.3 |
| 20260508100601 | 3 | 0 | 0.0 | 1.6 | 0.00 | 0.00 | 0.00 | 81 | 1025.4 |
| 20260508095558 | 4 | 0 | 0.0 | 0.0 | 0.00 | 0.00 | 0.00 | 79 | 1025.5 |
| 20260508095105 | 5 | 0 | 0.0 | 3.2 | 0.00 | 0.00 | 0.00 | 79 | 1025.3 |
| 20260508094607 | 5 | 0 | 0.0 | 3.2 | 0.00 | 0.00 | 0.00 | 80 | 1025.4 |
| 20260508094055 | 5 | 0 | 0.0 | 3.2 | 0.00 | 0.00 | 0.00 | 81 | 1025.3 |
| 20260508093555 | 5 | 0 | 0.0 | 1.6 | 0.00 | 0.00 | 0.00 | 79 | 1025.3 |
| 20260508093100 | 5 | 181 | 0.0 | 1.6 | 0.00 | 0.00 | 0.00 | 80 | 1025.4 |
| 20260508092558 | 5 | 0 | 0.0 | 0.0 | 0.00 | 0.00 | 0.00 | 78 | 1025.3 |
| 20260508092057 | 5 | 0 | 0.0 | 1.6 | 0.00 | 0.00 | 0.00 | 79 | 1025.4 |
| 20260508091606 | 6 | 0 | 0.0 | 1.6 | 0.00 | 0.00 | 0.00 | 79 | 1025.3 |
| 20260508091057 | 5 | 181 | 0.0 | 3.2 | 0.00 | 0.00 | 0.00 | 81 | 1025.2 |
| 20260508090557 | 5 | 0 | 0.0 | 3.2 | 0.00 | 0.00 | 0.00 | 78 | 1025.3 |
| 20260508090111 | 6 | 181 | 0.0 | 3.2 | 0.00 | 0.00 | 0.00 | 77 | 1025.3 |
| 20260508085557 | 6 | 0 | 0.0 | 0.0 | 0.00 | 0.00 | 0.00 | 78 | 1025.3 |
| 20260508085056 | 6 | 0 | 0.0 | 1.6 | 0.00 | 0.00 | 0.00 | 77 | 1025.3 |
| 20260508084607 | 6 | 0 | 0.0 | 1.6 | 0.00 | 0.00 | 0.00 | 78 | 1025.5 |
| 20260508084058 | 6 | 0 | 0.0 | 1.6 | 0.00 | 0.00 | 0.00 | 79 | 1025.5 |
| 20260508083558 | 6 | 0 | 0.0 | 0.0 | 0.00 | 0.00 | 0.00 | 76 | 1025.5 |
| 20260508083055 | 7 | 0 | 0.0 | 0.0 | 0.00 | 0.00 | 0.00 | 77 | 1025.7 |
| 20260508082559 | 7 | 0 | 0.0 | 3.2 | 0.00 | 0.00 | 0.00 | 79 | 1025.6 |
| 20260508082055 | 6 | 0 | 1.6 | 3.2 | 0.00 | 0.00 | 0.00 | 79 | 1025.7 |
| 20260508081610 | 6 | 195 | 0.0 | 3.2 | 0.00 | 0.00 | 0.00 | 76 | 1025.7 |
| 20260508081059 | 6 | 169 | 0.0 | 3.2 | 0.00 | 0.00 | 0.00 | 75 | 1025.9 |
| 20260508080555 | 7 | 0 | 0.0 | 0.0 | 0.00 | 0.00 | 0.00 | 77 | 1025.8 |
| 20260508080101 | 7 | 0 | 0.0 | 0.0 | 0.00 | 0.00 | 0.00 | 78 | 1025.8 |
| 20260508075559 | 7 | 0 | 0.0 | 0.0 | 0.00 | 0.00 | 0.00 | 76 | 1025.7 |
| 20260508075056 | 7 | 0 | 0.0 | 0.0 | 0.00 | 0.00 | 0.00 | 75 | 1025.8 |
| 20260508074558 | 7 | 0 | 0.0 | 0.0 | 0.00 | 0.00 | 0.00 | 76 | 1025.8 |
| 20260508074059 | 7 | 0 | 0.0 | 1.6 | 0.00 | 0.00 | 0.00 | 77 | 1025.7 |
| 20260508073559 | 7 | 0 | 0.0 | 1.6 | 0.00 | 0.00 | 0.00 | 75 | 1025.7 |
| 20260508073107 | 7 | 210 | 0.0 | 0.0 | 0.00 | 0.00 | 0.00 | 77 | 1025.9 |
| 20260508072558 | 8 | 0 | 0.0 | 0.0 | 0.00 | 0.00 | 0.00 | 74 | 1025.9 |
| 20260508072058 | 8 | 0 | 0.0 | 0.0 | 0.00 | 0.00 | 0.00 | 76 | 1025.9 |
| 20260508071622 | 8 | 0 | 0.0 | 0.0 | 0.00 | 0.00 | 0.00 | 76 | 1025.8 |
| 20260508071059 | 8 | 0 | 0.0 | 0.0 | 0.00 | 0.00 | 0.00 | 76 | 1025.8 |
| 20260508070559 | 8 | 0 | 0.0 | 0.0 | 0.00 | 0.00 | 0.00 | 76 | 1025.8 |
| 20260508065558 | 9 | 0 | 0.0 | 0.0 | 0.00 | 0.00 | 0.00 | 77 | 1025.9 |
| 20260508065059 | 9 | 0 | 0.0 | 0.0 | 0.00 | 0.00 | 0.00 | 76 | 1025.9 |
| 20260508064556 | 10 | 0 | 0.0 | 0.0 | 0.00 | 0.00 | 0.00 | 74 | 1025.8 |
| 20260508064059 | 10 | 0 | 0.0 | 3.2 | 0.00 | 0.00 | 0.00 | 74 | 1025.8 |
| 20260508063559 | 10 | 0 | 0.0 | 3.2 | 0.00 | 0.00 | 0.00 | 74 | 1025.6 |
| 20260508063058 | 10 | 93 | 0.0 | 3.2 | 0.00 | 0.00 | 0.00 | 75 | 1025.5 |
| 20260508062558 | 10 | 149 | 0.0 | 1.6 | 0.00 | 0.00 | 0.00 | 74 | 1025.6 |
| 20260508062059 | 11 | 0 | 0.0 | 6.4 | 0.00 | 0.00 | 0.00 | 72 | 1025.3 |
| 20260508061559 | 11 | 0 | 1.6 | 6.4 | 0.00 | 0.00 | 0.00 | 73 | 1025.4 |
| 20260508061100 | 11 | 55 | 3.2 | 8.0 | 0.00 | 0.00 | 0.00 | 72 | 1025.4 |
| 20260508060559 | 11 | 124 | 3.2 | 8.0 | 0.00 | 0.00 | 0.00 | 73 | 1025.3 |
| 20260508060058 | 11 | 57 | 4.8 | 8.0 | 0.00 | 0.00 | 0.00 | 73 | 1025.3 |
| 20260508055600 | 11 | 0 | 1.6 | 4.8 | 0.00 | 0.00 | 0.00 | 71 | 1025.5 |
| 20260508055059 | 11 | 57 | 3.2 | 4.8 | 0.00 | 0.00 | 0.00 | 72 | 1025.5 |
| 20260508054612 | 11 | 53 | 1.6 | 4.8 | 0.00 | 0.00 | 0.00 | 72 | 1025.6 |
| 20260508054102 | 11 | 0 | 1.6 | 3.2 | 0.00 | 0.00 | 0.00 | 70 | 1025.5 |
| 20260508053602 | 11 | 0 | 0.0 | 0.0 | 0.00 | 0.00 | 0.00 | 69 | 1025.5 |
| 20260508053059 | 11 | 0 | 0.0 | 0.0 | 0.00 | 0.00 | 0.00 | 69 | 1025.6 |
| 20260508052559 | 11 | 0 | 0.0 | 0.0 | 0.00 | 0.00 | 0.00 | 68 | 1025.5 |
| 20260508052058 | 12 | 0 | 0.0 | 0.0 | 0.00 | 0.00 | 0.00 | 66 | 1025.6 |
| 20260508051558 | 12 | 0 | 0.0 | 0.0 | 0.00 | 0.00 | 0.00 | 68 | 1025.6 |
| 20260508051059 | 12 | 0 | 0.0 | 3.2 | 0.00 | 0.00 | 0.00 | 67 | 1025.6 |
| 20260508050559 | 12 | 0 | 0.0 | 3.2 | 0.00 | 0.00 | 0.00 | 62 | 1025.6 |
| 20260508045559 | 13 | 283 | 0.0 | 1.6 | 0.00 | 0.00 | 0.00 | 62 | 1025.7 |
| 20260508045059 | 13 | 0 | 0.0 | 4.8 | 0.00 | 0.00 | 0.00 | 62 | 1025.7 |
| 20260508044603 | 13 | 0 | 0.0 | 6.4 | 0.00 | 0.00 | 0.00 | 62 | 1025.7 |
| 20260508044058 | 13 | 0 | 1.6 | 6.4 | 0.00 | 0.00 | 0.00 | 62 | 1025.5 |
| 20260508043557 | 13 | 0 | 1.6 | 6.4 | 0.00 | 0.00 | 0.00 | 61 | 1025.7 |
| 20260508043100 | 13 | 0 | 0.0 | 8.0 | 0.00 | 0.00 | 0.00 | 59 | 1025.5 |
| 20260508042559 | 13 | 58 | 0.0 | 8.0 | 0.00 | 0.00 | 0.00 | 58 | 1025.5 |
| 20260508042057 | 13 | 174 | 1.6 | 14.5 | 0.00 | 0.00 | 0.00 | 58 | 1025.3 |
| 20260508041557 | 14 | 0 | 4.8 | 14.5 | 0.00 | 0.00 | 0.00 | 58 | 1025.2 |
| 20260508041057 | 14 | 83 | 0.0 | 6.4 | 0.00 | 0.00 | 0.00 | 57 | 1025.1 |
| 20260508040557 | 14 | 233 | 0.0 | 6.4 | 0.00 | 0.00 | 0.00 | 56 | 1025.1 |
| 20260508040101 | 14 | 54 | 3.2 | 6.4 | 0.00 | 0.00 | 0.00 | 55 | 1024.8 |
| 20260508035556 | 14 | 137 | 0.0 | 8.0 | 0.00 | 0.00 | 0.00 | 56 | 1024.9 |
| 20260508035057 | 14 | 156 | 1.6 | 11.3 | 0.00 | 0.00 | 0.00 | 55 | 1024.7 |
| 20260508034555 | 14 | 112 | 4.8 | 11.3 | 0.00 | 0.00 | 0.00 | 53 | 1024.6 |
| 20260508034056 | 15 | 0 | 3.2 | 6.4 | 0.00 | 0.00 | 0.00 | 52 | 1024.5 |
| 20260508033557 | 15 | 178 | 0.0 | 6.4 | 0.00 | 0.00 | 0.00 | 51 | 1024.4 |
| 20260508033115 | 15 | 0 | 1.6 | 20.9 | 0.00 | 0.00 | 0.00 | 51 | 1024.2 |
| 20260508032555 | 15 | 58 | 9.7 | 20.9 | 0.00 | 0.00 | 0.00 | 50 | 1024.0 |
| 20260508032100 | 15 | 51 | 9.7 | 14.5 | 0.00 | 0.00 | 0.00 | 49 | 1023.9 |
| 20260508031556 | 15 | 150 | 1.6 | 3.2 | 0.00 | 0.00 | 0.00 | 44 | 1024.0 |
| 20260508031057 | 15 | 0 | 0.0 | 3.2 | 0.00 | 0.00 | 0.00 | 42 | 1023.8 |
| 20260508030557 | 15 | 0 | 0.0 | 3.2 | 0.00 | 0.00 | 0.00 | 42 | 1023.8 |
| 20260508030108 | 16 | 0 | 1.6 | 3.2 | 0.00 | 0.00 | 0.00 | 41 | 1023.7 |
| 20260508025557 | 16 | 0 | 0.0 | 3.2 | 0.00 | 0.00 | 0.00 | 40 | 1023.7 |
| 20260508025058 | 17 | 0 | 0.0 | 4.8 | 0.00 | 0.00 | 0.00 | 39 | 1023.6 |
| 20260508024619 | 17 | 0 | 0.0 | 6.4 | 0.00 | 0.00 | 0.00 | 39 | 1023.7 |
| 20260508024059 | 17 | 260 | 1.6 | 8.0 | 0.00 | 0.00 | 0.00 | 39 | 1023.6 |
| 20260508023556 | 17 | 109 | 0.0 | 9.7 | 0.00 | 0.00 | 0.00 | 39 | 1023.5 |
| 20260508023055 | 17 | 278 | 4.8 | 9.7 | 0.00 | 0.00 | 0.00 | 38 | 1023.5 |
| 20260508022559 | 17 | 271 | 1.6 | 9.7 | 0.00 | 0.00 | 0.00 | 37 | 1023.4 |
| 20260508022056 | 18 | 294 | 1.6 | 8.0 | 0.00 | 0.00 | 0.00 | 38 | 1023.3 |
| 20260508021558 | 18 | 286 | 1.6 | 9.7 | 0.00 | 0.00 | 0.00 | 38 | 1023.3 |
| 20260508021056 | 18 | 257 | 0.0 | 9.7 | 0.00 | 0.00 | 0.00 | 37 | 1023.3 |
| 20260508020557 | 18 | 260 | 0.0 | 9.7 | 0.00 | 0.00 | 0.00 | 37 | 1023.3 |
| 20260508020111 | 18 | 271 | 1.6 | 9.7 | 0.00 | 0.00 | 0.00 | 36 | 1023.2 |
| 20260508015558 | 19 | 48 | 1.6 | 9.7 | 0.00 | 0.00 | 0.00 | 35 | 1023.2 |
| 20260508015100 | 19 | 0 | 0.0 | 9.7 | 0.00 | 0.00 | 0.00 | 35 | 1023.2 |
| 20260508014613 | 19 | 52 | 1.6 | 11.3 | 0.00 | 0.00 | 0.00 | 35 | 1023.2 |
| 20260508014058 | 20 | 108 | 3.2 | 11.3 | 0.00 | 0.00 | 0.00 | 34 | 1023.2 |
| 20260508013557 | 20 | 0 | 1.6 | 9.7 | 0.00 | 0.00 | 0.00 | 33 | 1023.2 |
| 20260508013107 | 21 | 232 | 3.2 | 9.7 | 0.00 | 0.00 | 0.00 | 31 | 1023.1 |
| 20260508012557 | 21 | 117 | 0.0 | 8.0 | 0.00 | 0.00 | 0.00 | 32 | 1023.3 |
| 20260508012057 | 21 | 16 | 1.6 | 11.3 | 0.00 | 0.00 | 0.00 | 31 | 1023.3 |
| 20260508011603 | 21 | 0 | 0.0 | 11.3 | 0.00 | 0.00 | 0.00 | 31 | 1023.3 |
| 20260508011102 | 21 | 45 | 3.2 | 12.9 | 0.00 | 0.00 | 0.00 | 31 | 1023.2 |
| 20260508010557 | 21 | 34 | 3.2 | 17.7 | 0.00 | 0.00 | 0.00 | 31 | 1023.1 |
| 20260508010105 | 21 | 250 | 1.6 | 19.3 | 0.00 | 0.00 | 0.00 | 31 | 1023.2 |
| 20260508005557 | 21 | 266 | 3.2 | 20.9 | 0.00 | 0.00 | 0.00 | 31 | 1023.1 |
| 20260508005057 | 21 | 207 | 3.2 | 20.9 | 0.00 | 0.00 | 0.00 | 30 | 1023.1 |
| 20260508004556 | 22 | 238 | 3.2 | 20.9 | 0.00 | 0.00 | 0.00 | 30 | 1023.1 |
| 20260508004057 | 22 | 255 | 6.4 | 12.9 | 0.00 | 0.00 | 0.00 | 30 | 1023.1 |
| 20260508003556 | 22 | 290 | 0.0 | 11.3 | 0.00 | 0.00 | 0.00 | 30 | 1023.1 |
| 20260508003057 | 22 | 266 | 1.6 | 12.9 | 0.00 | 0.00 | 0.00 | 28 | 1023.1 |
| 20260508002556 | 22 | 33 | 3.2 | 17.7 | 0.00 | 0.00 | 0.00 | 28 | 1023.1 |
| 20260508002056 | 22 | 351 | 4.8 | 17.7 | 0.00 | 0.00 | 0.00 | 29 | 1023.0 |
| 20260508001559 | 22 | 117 | 4.8 | 17.7 | 0.00 | 0.00 | 0.00 | 28 | 1023.1 |
| 20260508001056 | 23 | 34 | 4.8 | 16.1 | 0.00 | 0.00 | 0.00 | 28 | 1023.1 |
| 20260508000558 | 23 | 226 | 3.2 | 22.5 | 0.00 | 0.00 | 0.00 | 27 | 1023.0 |
| 20260508000057 | 23 | 219 | 1.6 | 22.5 | 0.00 | 0.00 | 0.00 | 27 | 1022.9 |
| 20260507235557 | 23 | 101 | 3.2 | 14.5 | 0.00 | 0.00 | 0.00 | 27 | 1022.9 |
| 20260507235057 | 23 | 198 | 1.6 | 14.5 | 0.00 | 0.00 | 0.00 | 27 | 1022.9 |
| 20260507234557 | 23 | 275 | 3.2 | 11.3 | 0.00 | 0.00 | 0.00 | 24 | 1022.8 |
| 20260507234057 | 23 | 0 | 3.2 | 11.3 | 0.00 | 0.00 | 0.00 | 24 | 1022.8 |
| 20260507233557 | 23 | 233 | 1.6 | 8.0 | 0.00 | 0.00 | 0.00 | 22 | 1022.6 |
| 20260507233055 | 23 | 0 | 0.0 | 9.7 | 0.00 | 0.00 | 0.00 | 23 | 1022.9 |
| 20260507232556 | 23 | 252 | 1.6 | 17.7 | 0.00 | 0.00 | 0.00 | 23 | 1022.7 |
| 20260507232056 | 23 | 273 | 3.2 | 17.7 | 0.00 | 0.00 | 0.00 | 23 | 1023.0 |
| 20260507231557 | 23 | 117 | 4.8 | 17.7 | 0.00 | 0.00 | 0.00 | 24 | 1022.9 |
| 20260507231059 | 23 | 0 | 1.6 | 16.1 | 0.00 | 0.00 | 0.00 | 23 | 1023.0 |
| 20260507230559 | 23 | 299 | 3.2 | 16.1 | 0.00 | 0.00 | 0.00 | 20 | 1023.0 |
| 20260507230057 | 24 | 137 | 4.8 | 16.1 | 0.00 | 0.00 | 0.00 | 21 | 1023.1 |
| 20260507225557 | 23 | 72 | 3.2 | 12.9 | 0.00 | 0.00 | 0.00 | 22 | 1023.0 |
| 20260507225055 | 23 | 0 | 0.0 | 11.3 | 0.00 | 0.00 | 0.00 | 19 | 1023.2 |
| 20260507224602 | 23 | 224 | 3.2 | 11.3 | 0.00 | 0.00 | 0.00 | 21 | 1023.1 |
| 20260507224057 | 23 | 338 | 3.2 | 9.7 | 0.00 | 0.00 | 0.00 | 19 | 1023.1 |
| 20260507223557 | 23 | 19 | 1.6 | 16.1 | 0.00 | 0.00 | 0.00 | 21 | 1023.4 |
| 20260507223058 | 23 | 247 | 1.6 | 16.1 | 0.00 | 0.00 | 0.00 | 19 | 1023.5 |
| 20260507222559 | 23 | 227 | 3.2 | 11.3 | 0.00 | 0.00 | 0.00 | 20 | 1023.5 |
| 20260507222059 | 23 | 38 | 0.0 | 6.4 | 0.00 | 0.00 | 0.00 | 17 | 1023.5 |
| 20260507221559 | 23 | 155 | 1.6 | 6.4 | 0.00 | 0.00 | 0.00 | 18 | 1023.5 |
| 20260507221059 | 23 | 154 | 1.6 | 14.5 | 0.00 | 0.00 | 0.00 | 19 | 1023.5 |
| 20260507220558 | 23 | 74 | 1.6 | 14.5 | 0.00 | 0.00 | 0.00 | 18 | 1023.6 |
| 20260507220059 | 23 | 171 | 1.6 | 8.0 | 0.00 | 0.00 | 0.00 | 17 | 1023.7 |
| 20260507215559 | 24 | 257 | 1.6 | 8.0 | 0.00 | 0.00 | 0.00 | 16 | 1023.7 |
| 20260507215059 | 24 | 100 | 1.6 | 9.7 | 0.00 | 0.00 | 0.00 | 18 | 1023.9 |
| 20260507214557 | 23 | 214 | 4.8 | 9.7 | 0.00 | 0.00 | 0.00 | 17 | 1023.8 |
| 20260507214100 | 24 | 207 | 0.0 | 9.7 | 0.00 | 0.00 | 0.00 | 18 | 1024.0 |
| 20260507213601 | 24 | 134 | 3.2 | 16.1 | 0.00 | 0.00 | 0.00 | 18 | 1023.9 |
| 20260507213101 | 24 | 229 | 3.2 | 16.1 | 0.00 | 0.00 | 0.00 | 18 | 1024.0 |
| 20260507212558 | 23 | 198 | 6.4 | 14.5 | 0.00 | 0.00 | 0.00 | 18 | 1024.0 |
| 20260507212058 | 23 | 169 | 4.8 | 14.5 | 0.00 | 0.00 | 0.00 | 18 | 1024.0 |
| 20260507211558 | 23 | 146 | 4.8 | 22.5 | 0.00 | 0.00 | 0.00 | 17 | 1024.1 |
| 20260507211058 | 24 | 157 | 6.4 | 22.5 | 0.00 | 0.00 | 0.00 | 16 | 1024.1 |
| 20260507210602 | 24 | 242 | 8.0 | 22.5 | 0.00 | 0.00 | 0.00 | 18 | 1024.1 |
| 20260507210057 | 24 | 243 | 3.2 | 16.1 | 0.00 | 0.00 | 0.00 | 17 | 1024.2 |
| 20260507205559 | 24 | 176 | 6.4 | 16.1 | 0.00 | 0.00 | 0.00 | 18 | 1024.1 |
| 20260507205059 | 25 | 160 | 1.6 | 16.1 | 0.00 | 0.00 | 0.00 | 17 | 1024.2 |
| 20260507204559 | 24 | 250 | 8.0 | 16.1 | 0.00 | 0.00 | 0.00 | 18 | 1024.2 |
| 20260507204056 | 25 | 143 | 4.8 | 12.9 | 0.00 | 0.00 | 0.00 | 18 | 1024.3 |
| 20260507203559 | 24 | 279 | 4.8 | 12.9 | 0.00 | 0.00 | 0.00 | 18 | 1024.3 |
| 20260507203102 | 24 | 25 | 4.8 | 12.9 | 0.00 | 0.00 | 0.00 | 19 | 1024.4 |
| 20260507202558 | 24 | 243 | 3.2 | 11.3 | 0.00 | 0.00 | 0.00 | 15 | 1024.4 |
| 20260507202058 | 24 | 229 | 4.8 | 14.5 | 0.00 | 0.00 | 0.00 | 17 | 1024.5 |
| 20260507201558 | 24 | 196 | 4.8 | 14.5 | 0.00 | 0.00 | 0.00 | 17 | 1024.6 |
| 20260507201059 | 24 | 161 | 4.8 | 12.9 | 0.00 | 0.00 | 0.00 | 18 | 1024.6 |
| 20260507200600 | 24 | 274 | 3.2 | 11.3 | 0.00 | 0.00 | 0.00 | 17 | 1024.7 |
| 20260507200058 | 23 | 0 | 1.6 | 12.9 | 0.00 | 0.00 | 0.00 | 15 | 1024.7 |
| 20260507195558 | 23 | 227 | 1.6 | 12.9 | 0.00 | 0.00 | 0.00 | 16 | 1024.7 |
| 20260507195058 | 23 | 140 | 3.2 | 12.9 | 0.00 | 0.00 | 0.00 | 18 | 1024.7 |
| 20260507194613 | 23 | 58 | 3.2 | 12.9 | 0.00 | 0.00 | 0.00 | 17 | 1024.8 |
| 20260507194056 | 23 | 16 | 3.2 | 12.9 | 0.00 | 0.00 | 0.00 | 17 | 1024.7 |
| 20260507193557 | 22 | 67 | 3.2 | 12.9 | 0.00 | 0.00 | 0.00 | 18 | 1024.8 |
| 20260507193100 | 23 | 65 | 3.2 | 12.9 | 0.00 | 0.00 | 0.00 | 16 | 1025.0 |
| 20260507192559 | 23 | 134 | 1.6 | 6.4 | 0.00 | 0.00 | 0.00 | 17 | 1025.1 |
| 20260507192059 | 23 | 319 | 1.6 | 6.4 | 0.00 | 0.00 | 0.00 | 18 | 1025.2 |
| 20260507191604 | 23 | 305 | 1.6 | 9.7 | 0.00 | 0.00 | 0.00 | 17 | 1025.2 |
| 20260507191059 | 22 | 316 | 4.8 | 14.5 | 0.00 | 0.00 | 0.00 | 17 | 1025.2 |
| 20260507190559 | 22 | 326 | 4.8 | 14.5 | 0.00 | 0.00 | 0.00 | 18 | 1025.1 |
| 20260507185559 | 22 | 12 | 3.2 | 9.7 | 0.00 | 0.00 | 0.00 | 19 | 1025.4 |
| 20260507185058 | 21 | 302 | 1.6 | 9.7 | 0.00 | 0.00 | 0.00 | 20 | 1025.5 |
| 20260507184559 | 21 | 49 | 4.8 | 12.9 | 0.00 | 0.00 | 0.00 | 19 | 1025.6 |
| 20260507184059 | 21 | 90 | 4.8 | 12.9 | 0.00 | 0.00 | 0.00 | 21 | 1025.6 |
| 20260507183602 | 21 | 342 | 3.2 | 9.7 | 0.00 | 0.00 | 0.00 | 19 | 1025.7 |
| 20260507183106 | 21 | 16 | 3.2 | 6.4 | 0.00 | 0.00 | 0.00 | 19 | 1025.7 |
| 20260507182558 | 20 | 40 | 3.2 | 9.7 | 0.00 | 0.00 | 0.00 | 18 | 1025.6 |
| 20260507182058 | 20 | 60 | 1.6 | 9.7 | 0.00 | 0.00 | 0.00 | 17 | 1025.6 |
| 20260507181558 | 20 | 50 | 4.8 | 9.7 | 0.00 | 0.00 | 0.00 | 18 | 1025.8 |
| 20260507181058 | 20 | 355 | 4.8 | 9.7 | 0.00 | 0.00 | 0.00 | 21 | 1026.0 |
| 20260507180559 | 20 | 55 | 4.8 | 16.1 | 0.00 | 0.00 | 0.00 | 22 | 1026.0 |
| 20260507180059 | 19 | 47 | 3.2 | 16.1 | 0.00 | 0.00 | 0.00 | 23 | 1026.1 |
| 20260507175556 | 19 | 75 | 3.2 | 16.1 | 0.00 | 0.00 | 0.00 | 20 | 1026.0 |
| 20260507175059 | 18 | 67 | 4.8 | 11.3 | 0.00 | 0.00 | 0.00 | 24 | 1026.0 |
| 20260507174556 | 18 | 45 | 3.2 | 9.7 | 0.00 | 0.00 | 0.00 | 21 | 1026.0 |
| 20260507174058 | 18 | 50 | 3.2 | 9.7 | 0.00 | 0.00 | 0.00 | 22 | 1026.2 |
| 20260507173558 | 18 | 94 | 3.2 | 8.0 | 0.00 | 0.00 | 0.00 | 26 | 1026.2 |
| 20260507173109 | 17 | 358 | 4.8 | 8.0 | 0.00 | 0.00 | 0.00 | 27 | 1026.2 |
| 20260507172602 | 17 | 46 | 4.8 | 8.0 | 0.00 | 0.00 | 0.00 | 26 | 1026.2 |
| 20260507172058 | 17 | 51 | 4.8 | 6.4 | 0.00 | 0.00 | 0.00 | 32 | 1026.2 |
| 20260507171559 | 18 | 338 | 3.2 | 8.0 | 0.00 | 0.00 | 0.00 | 33 | 1026.2 |
| 20260507171058 | 18 | 49 | 3.2 | 8.0 | 0.00 | 0.00 | 0.00 | 35 | 1026.2 |
| 20260507170558 | 17 | 79 | 1.6 | 6.4 | 0.00 | 0.00 | 0.00 | 33 | 1026.2 |
| 20260507165558 | 16 | 49 | 3.2 | 4.8 | 0.00 | 0.00 | 0.00 | 35 | 1026.2 |
| 20260507165058 | 16 | 45 | 3.2 | 6.4 | 0.00 | 0.00 | 0.00 | 39 | 1026.2 |
| 20260507164557 | 15 | 57 | 4.8 | 6.4 | 0.00 | 0.00 | 0.00 | 39 | 1026.3 |
| 20260507164058 | 15 | 74 | 1.6 | 6.4 | 0.00 | 0.00 | 0.00 | 39 | 1026.2 |
| 20260507163558 | 15 | 58 | 3.2 | 6.4 | 0.00 | 0.00 | 0.00 | 41 | 1026.3 |
| 20260507163100 | 15 | 36 | 1.6 | 6.4 | 0.00 | 0.00 | 0.00 | 41 | 1026.3 |
| 20260507162558 | 15 | 322 | 1.6 | 4.8 | 0.00 | 0.00 | 0.00 | 41 | 1026.4 |